DW9945 Weather Reports


time (UTC)temp
C
wind
direction
speed
KPH
gust
KPH
rain 1hr
cm
rain 24hr
cm
rain mn
cm
humidity
%
barometer
mb
20260901012519 21 41 3.2 4.8 0.00 0.00 0.00 44 1015.9
20260901012019 21 46 3.2 4.8 0.00 0.00 0.00 43 1016.0
20260901011018 21 52 3.2 4.8 0.00 0.00 0.00 43 1015.9
20260901010519 21 30 3.2 8.0 0.00 0.00 0.00 43 1015.8
20260901005518 21 40 3.2 9.7 0.00 0.00 0.00 43 1015.8
20260901005019 21 44 3.2 4.8 0.00 0.00 0.00 43 1015.9
20260901004018 21 20 3.2 8.0 0.00 0.00 0.00 43 1016.0
20260901003018 21 32 4.8 11.3 0.00 0.00 0.00 42 1016.0
20260901002518 21 15 4.8 8.0 0.00 0.00 0.00 42 1016.0
20260901002018 21 11 4.8 4.8 0.00 0.00 0.00 41 1016.1
20260901001512 21 6 4.8 8.0 0.00 0.00 0.00 40 1016.1
20260901000507 20 49 3.2 8.0 0.00 0.00 0.00 40 1016.3
20260901000007 20 70 1.6 8.0 0.00 0.00 0.00 40 1016.2
20260831235509 20 26 3.2 8.0 0.00 0.00 0.00 40 1016.0
20260831235019 20 18 4.8 9.7 0.00 0.00 0.00 41 1016.0
20260831234518 20 354 8.0 12.9 0.00 0.00 0.00 40 1015.9
20260831234019 20 354 8.0 9.7 0.00 0.00 0.00 40 1015.9
20260831233519 20 0 4.8 9.7 0.00 0.00 0.00 39 1016.0
20260831232518 21 32 4.8 14.5 0.00 0.00 0.00 39 1015.9
20260831232018 21 91 11.3 16.1 0.00 0.00 0.00 37 1015.9
20260831231519 22 124 6.4 16.1 0.00 0.00 0.00 37 1015.8
20260831231018 21 21 4.8 4.8 0.00 0.00 0.00 37 1015.6
20260831230518 21 355 4.8 4.8 0.00 0.00 0.00 37 1015.6
20260831230019 21 11 4.8 4.8 0.00 0.00 0.00 36 1015.6
20260831225518 22 11 3.2 4.8 0.00 0.00 0.00 35 1015.6
20260831225018 22 11 4.8 4.8 0.00 0.00 0.00 36 1015.5
20260831224519 22 11 4.8 8.0 0.00 0.00 0.00 36 1015.6
20260831224007 22 10 4.8 8.0 0.00 0.00 0.00 36 1015.6
20260831222518 22 352 0.0 0.0 0.00 0.00 0.00 34 1015.7
20260831222007 23 342 0.0 0.0 0.00 0.00 0.00 34 1015.6
20260831221518 23 342 0.0 0.0 0.00 0.00 0.00 34 1015.5
20260831221022 23 342 0.0 0.0 0.00 0.00 0.00 33 1015.5
20260831220518 24 342 0.0 0.0 0.00 0.00 0.00 33 1015.5
20260831220019 25 342 0.0 0.0 0.00 0.00 0.00 32 1015.6
20260831215007 25 342 0.0 0.0 0.00 0.00 0.00 31 1015.5
20260831214019 24 342 0.0 0.0 0.00 0.00 0.00 31 1015.6
20260831213518 24 342 0.0 0.0 0.00 0.00 0.00 32 1015.5
20260831213019 24 342 0.0 0.0 0.00 0.00 0.00 32 1015.5
20260831211519 23 342 0.0 0.0 0.00 0.00 0.00 33 1015.3
20260831211007 23 342 0.0 0.0 0.00 0.00 0.00 33 1015.3
20260831210519 24 342 0.0 0.0 0.00 0.00 0.00 33 1015.2
20260831210007 25 342 0.0 0.0 0.00 0.00 0.00 32 1015.2
20260831205518 25 315 0.0 0.0 0.00 0.00 0.00 31 1015.2
20260831205007 25 315 0.0 0.0 0.00 0.00 0.00 32 1015.1
20260831204519 25 315 0.0 0.0 0.00 0.00 0.00 31 1015.0
20260831204018 25 315 0.0 0.0 0.00 0.00 0.00 30 1015.0
20260831203518 25 315 0.0 0.0 0.00 0.00 0.00 30 1014.8
20260831202507 25 315 0.0 0.0 0.00 0.00 0.00 30 1014.7
20260831202018 26 315 0.0 0.0 0.00 0.00 0.00 30 1014.8
20260831200518 26 315 0.0 0.0 0.00 0.00 0.00 29 1014.8
20260831200018 26 315 0.0 0.0 0.00 0.00 0.00 29 1014.7
20260831195018 27 315 1.6 3.2 0.00 0.00 0.00 28 1014.4
20260831194507 27 315 3.2 4.8 0.00 0.00 0.00 28 1014.4
20260831194018 27 315 8.0 9.7 0.00 0.00 0.00 28 1014.4
20260831193518 27 313 9.7 12.9 0.00 0.00 0.00 27 1014.4
20260831193018 27 313 9.7 12.9 0.00 0.00 0.00 27 1014.3
20260831192017 27 313 8.0 11.3 0.00 0.00 0.00 27 1014.2
20260831191518 27 311 6.4 8.0 0.00 0.00 0.00 26 1014.3
20260831191018 28 309 8.0 11.3 0.00 0.00 0.00 26 1014.2
20260831190507 28 311 6.4 11.3 0.00 0.00 0.00 26 1014.2
20260831190019 28 309 4.8 8.0 0.00 0.00 0.00 26 1014.1
20260831185506 29 308 4.8 8.0 0.00 0.00 0.00 25 1014.1
20260831185017 30 302 3.2 4.8 0.00 0.00 0.00 24 1014.1
20260831184518 30 290 4.8 8.0 0.00 0.00 0.00 24 1014.1
20260831183518 31 281 6.4 11.3 0.00 0.00 0.00 23 1014.2
20260831183018 31 283 8.0 12.9 0.00 0.00 0.00 23 1014.2
20260831182518 31 285 6.4 11.3 0.00 0.00 0.00 23 1014.2
20260831181524 31 275 0.0 4.8 0.00 0.00 0.00 22 1014.2
20260831181018 31 276 1.6 9.7 0.00 0.00 0.00 22 1014.2
20260831180522 31 271 4.8 9.7 0.00 0.00 0.00 22 1014.2
20260831180007 31 289 4.8 11.3 0.00 0.00 0.00 22 1014.2
20260831175518 31 283 11.3 16.1 0.00 0.00 0.00 22 1014.3
20260831175018 31 284 3.2 12.9 0.00 0.00 0.00 22 1014.3
20260831174007 32 286 11.3 19.3 0.00 0.00 0.00 22 1014.3
20260831173007 32 229 8.0 12.9 0.00 0.00 0.00 22 1014.2
20260831172018 32 235 4.8 12.9 0.00 0.00 0.00 22 1014.3
20260831171518 32 206 8.0 27.4 0.00 0.00 0.00 21 1014.2
20260831170518 32 291 6.4 14.5 0.00 0.00 0.00 22 1014.3
20260831170018 32 242 6.4 12.9 0.00 0.00 0.00 22 1014.3
20260831165506 32 231 9.7 16.1 0.00 0.00 0.00 22 1014.4
20260831165017 32 259 8.0 14.5 0.00 0.00 0.00 22 1014.4
20260831164518 32 265 11.3 20.9 0.00 0.00 0.00 22 1014.4
20260831164017 32 189 6.4 16.1 0.00 0.00 0.00 23 1014.4
20260831163518 32 187 9.7 14.5 0.00 0.00 0.00 22 1014.4
20260831162507 32 292 8.0 19.3 0.00 0.00 0.00 22 1014.4
20260831162006 32 254 9.7 19.3 0.00 0.00 0.00 22 1014.3
20260831161518 32 235 9.7 24.1 0.00 0.00 0.00 22 1014.3
20260831160518 31 214 6.4 14.5 0.00 0.00 0.00 24 1014.3
20260831160018 31 204 8.0 12.9 0.00 0.00 0.00 24 1014.5
20260831155518 31 194 8.0 16.1 0.00 0.00 0.00 24 1014.6
20260831155006 31 187 8.0 19.3 0.00 0.00 0.00 24 1014.8
20260831154518 31 207 3.2 11.3 0.00 0.00 0.00 23 1014.8
20260831154007 32 239 9.7 19.3 0.00 0.00 0.00 22 1014.8
20260831153507 32 230 6.4 19.3 0.00 0.00 0.00 23 1014.8
20260831153018 31 249 11.3 20.9 0.00 0.00 0.00 23 1014.9
20260831152517 31 187 8.0 19.3 0.00 0.00 0.00 23 1014.8
20260831152017 31 248 6.4 16.1 0.00 0.00 0.00 24 1015.0
20260831151506 31 215 9.7 19.3 0.00 0.00 0.00 23 1015.0
20260831151018 32 216 8.0 19.3 0.00 0.00 0.00 24 1015.0
20260831150518 31 249 6.4 19.3 0.00 0.00 0.00 24 1015.0
20260831150017 31 197 4.8 16.1 0.00 0.00 0.00 23 1014.9
20260831145506 31 217 4.8 19.3 0.00 0.00 0.00 24 1015.1
20260831145006 31 267 4.8 19.3 0.00 0.00 0.00 24 1015.1
20260831144506 31 198 8.0 19.3 0.00 0.00 0.00 24 1015.1
20260831144006 31 217 6.4 19.3 0.00 0.00 0.00 24 1015.2
20260831142506 31 259 1.6 11.3 0.00 0.00 0.00 25 1015.2
20260831141517 31 243 9.7 14.5 0.00 0.00 0.00 24 1015.4
20260831141017 31 193 8.0 20.9 0.00 0.00 0.00 25 1015.4
20260831140506 31 214 8.0 19.3 0.00 0.00 0.00 25 1015.6
20260831140018 31 201 4.8 12.9 0.00 0.00 0.00 25 1015.6
20260831135517 31 268 9.7 20.9 0.00 0.00 0.00 25 1015.7
20260831135017 31 294 8.0 16.1 0.00 0.00 0.00 25 1015.6
20260831134017 30 291 11.3 19.3 0.00 0.00 0.00 25 1015.8
20260831133517 30 273 12.9 22.5 0.00 0.00 0.00 25 1015.8
20260831133018 30 258 3.2 19.3 0.00 0.00 0.00 26 1015.7
20260831132518 30 238 14.5 19.3 0.00 0.00 0.00 27 1015.9
20260831130507 30 249 14.5 20.9 0.00 0.00 0.00 26 1016.1
20260831130017 29 291 11.3 20.9 0.00 0.00 0.00 28 1016.1
20260831125517 30 254 9.7 19.3 0.00 0.00 0.00 27 1016.2
20260831125018 29 210 8.0 16.1 0.00 0.00 0.00 28 1016.1
20260831124517 29 178 6.4 14.5 0.00 0.00 0.00 28 1016.2
20260831124017 30 238 14.5 22.5 0.00 0.00 0.00 28 1016.3
20260831123518 29 202 4.8 19.3 0.00 0.00 0.00 29 1016.3
20260831123018 29 271 4.8 12.9 0.00 0.00 0.00 29 1016.5
20260831122006 29 230 3.2 16.1 0.00 0.00 0.00 29 1016.5
20260831121507 29 187 9.7 14.5 0.00 0.00 0.00 29 1016.5
20260831121017 29 260 8.0 14.5 0.00 0.00 0.00 29 1016.6
20260831120506 28 271 8.0 14.5 0.00 0.00 0.00 29 1016.6
20260831120007 29 293 11.3 16.1 0.00 0.00 0.00 30 1016.6
20260831115018 28 196 6.4 14.5 0.00 0.00 0.00 30 1016.7
20260831114517 28 358 1.6 11.3 0.00 0.00 0.00 30 1016.8
20260831114017 28 265 6.4 11.3 0.00 0.00 0.00 30 1016.9
20260831113517 28 225 8.0 19.3 0.00 0.00 0.00 31 1016.9
20260831113018 28 162 8.0 19.3 0.00 0.00 0.00 31 1016.8
20260831112518 28 169 9.7 16.1 0.00 0.00 0.00 31 1017.0
20260831111517 28 194 6.4 19.3 0.00 0.00 0.00 32 1017.1
20260831111017 28 207 1.6 4.8 0.00 0.00 0.00 32 1017.2
20260831110517 28 7 3.2 11.3 0.00 0.00 0.00 31 1017.3
20260831110007 27 251 4.8 11.3 0.00 0.00 0.00 32 1017.4
20260831105017 27 225 4.8 11.3 0.00 0.00 0.00 32 1017.3
20260831104517 27 174 4.8 16.1 0.00 0.00 0.00 32 1017.3
20260831103518 27 155 3.2 8.0 0.00 0.00 0.00 32 1017.4
20260831103017 27 178 3.2 4.8 0.00 0.00 0.00 33 1017.3
20260831102517 27 201 8.0 14.5 0.00 0.00 0.00 32 1017.3
20260831102017 27 189 1.6 8.0 0.00 0.00 0.00 32 1017.4
20260831101017 27 220 0.0 4.8 0.00 0.00 0.00 33 1017.4
20260831100507 26 78 3.2 11.3 0.00 0.00 0.00 33 1017.4
20260831095519 26 54 3.2 8.0 0.00 0.00 0.00 34 1017.4
20260831094519 26 86 4.8 12.9 0.00 0.00 0.00 34 1017.4
20260831094019 26 154 3.2 9.7 0.00 0.00 0.00 34 1017.4
20260831093508 26 118 8.0 12.9 0.00 0.00 0.00 34 1017.6
20260831093020 25 94 9.7 14.5 0.00 0.00 0.00 34 1017.5
20260831091519 25 12 3.2 9.7 0.00 0.00 0.00 34 1017.5
20260831090520 25 78 4.8 11.3 0.00 0.00 0.00 35 1017.5
20260831085519 24 93 4.8 12.9 0.00 0.00 0.00 36 1017.4
20260831085018 24 60 4.8 8.0 0.00 0.00 0.00 36 1017.4
20260831084519 24 70 4.8 11.3 0.00 0.00 0.00 36 1017.4
20260831084018 23 80 6.4 14.5 0.00 0.00 0.00 36 1017.4
20260831083519 23 81 4.8 14.5 0.00 0.00 0.00 37 1017.4
20260831083019 23 71 3.2 12.9 0.00 0.00 0.00 38 1017.4
20260831082519 23 79 8.0 14.5 0.00 0.00 0.00 37 1017.5
20260831082008 23 76 8.0 14.5 0.00 0.00 0.00 39 1017.5
20260831081519 22 41 6.4 11.3 0.00 0.00 0.00 39 1017.5
20260831081019 22 70 4.8 12.9 0.00 0.00 0.00 40 1017.4
20260831080019 22 58 6.4 12.9 0.00 0.00 0.00 40 1017.5
20260831075519 22 21 3.2 8.0 0.00 0.00 0.00 41 1017.4
20260831075008 22 32 4.8 8.0 0.00 0.00 0.00 41 1017.4
20260831074519 21 13 6.4 11.3 0.00 0.00 0.00 42 1017.3
20260831073519 21 12 4.8 11.3 0.00 0.00 0.00 43 1017.3
20260831073008 21 14 4.8 11.3 0.00 0.00 0.00 44 1017.3
20260831072019 20 18 8.0 11.3 0.00 0.00 0.00 45 1017.2
20260831071518 20 8 8.0 12.9 0.00 0.00 0.00 45 1017.2
20260831071018 20 20 6.4 12.9 0.00 0.00 0.00 46 1017.2
20260831070019 20 11 4.8 11.3 0.00 0.00 0.00 47 1017.1
20260831065518 19 10 4.8 9.7 0.00 0.00 0.00 48 1017.0
20260831064519 19 4 4.8 8.0 0.00 0.00 0.00 48 1017.1
20260831064019 19 19 4.8 8.0 0.00 0.00 0.00 48 1017.1
20260831063019 18 29 6.4 12.9 0.00 0.00 0.00 49 1017.0
20260831062519 18 30 8.0 12.9 0.00 0.00 0.00 50 1017.0
20260831062019 17 12 8.0 12.9 0.00 0.00 0.00 51 1017.0
20260831061508 17 17 8.0 11.3 0.00 0.00 0.00 52 1017.0
20260831061018 17 11 4.8 11.3 0.00 0.00 0.00 52 1016.9
20260831060518 17 11 4.8 11.3 0.00 0.00 0.00 51 1016.9
20260831055519 17 27 4.8 9.7 0.00 0.00 0.00 51 1017.0
20260831055019 17 25 4.8 9.7 0.00 0.00 0.00 52 1017.0
20260831054519 17 30 4.8 8.0 0.00 0.00 0.00 53 1016.9
20260831054019 17 21 4.8 8.0 0.00 0.00 0.00 53 1016.8
20260831053519 17 5 4.8 8.0 0.00 0.00 0.00 53 1016.8
20260831052518 17 27 0.0 4.8 0.00 0.00 0.00 51 1016.8
20260831052019 17 27 3.2 4.8 0.00 0.00 0.00 51 1016.8
20260831051519 17 22 4.8 8.0 0.00 0.00 0.00 51 1016.9
20260831051008 17 12 1.6 4.8 0.00 0.00 0.00 52 1016.9
20260831050519 17 12 0.0 0.0 0.00 0.00 0.00 51 1016.8
20260831050019 18 16 0.0 3.2 0.00 0.00 0.00 50 1016.7
20260831045519 18 15 1.6 4.8 0.00 0.00 0.00 50 1016.7
20260831045019 18 25 4.8 9.7 0.00 0.00 0.00 50 1016.7
20260831044519 18 29 4.8 8.0 0.00 0.00 0.00 51 1016.7
20260831044018 18 37 4.8 8.0 0.00 0.00 0.00 52 1016.6
20260831043519 18 16 4.8 4.8 0.00 0.00 0.00 51 1016.6
20260831043018 18 352 4.8 4.8 0.00 0.00 0.00 50 1016.6
20260831042019 19 26 4.8 9.7 0.00 0.00 0.00 50 1016.4
20260831041507 18 42 4.8 14.5 0.00 0.00 0.00 51 1016.4
20260831041019 18 20 4.8 8.0 0.00 0.00 0.00 52 1016.4
20260831040519 18 20 4.8 8.0 0.00 0.00 0.00 52 1016.5
20260831040008 18 13 4.8 8.0 0.00 0.00 0.00 51 1016.6
20260831035518 18 0 4.8 8.0 0.00 0.00 0.00 50 1016.5
20260831035008 19 14 3.2 8.0 0.00 0.00 0.00 49 1016.5
20260831034508 20 16 4.8 8.0 0.00 0.00 0.00 49 1016.4
20260831034018 20 25 4.8 8.0 0.00 0.00 0.00 49 1016.3
20260831033519 19 29 4.8 8.0 0.00 0.00 0.00 50 1016.2
20260831033019 19 25 4.8 11.3 0.00 0.00 0.00 50 1016.2
20260831032508 19 31 4.8 11.3 0.00 0.00 0.00 52 1016.2
20260831032018 18 16 4.8 8.0 0.00 0.00 0.00 52 1016.2
20260831031508 18 6 4.8 8.0 0.00 0.00 0.00 51 1016.3
20260831031019 19 5 4.8 4.8 0.00 0.00 0.00 51 1016.3
20260831030518 19 5 4.8 4.8 0.00 0.00 0.00 50 1016.3
20260831030019 20 6 4.8 4.8 0.00 0.00 0.00 49 1016.3
20260831025518 20 19 4.8 8.0 0.00 0.00 0.00 49 1016.3
20260831025019 20 32 4.8 8.0 0.00 0.00 0.00 49 1016.2
20260831024018 20 8 4.8 9.7 0.00 0.00 0.00 50 1016.2
20260831023519 20 15 4.8 8.0 0.00 0.00 0.00 50 1016.3
20260831023019 20 0 3.2 8.0 0.00 0.00 0.00 50 1016.1
20260831022518 20 2 4.8 8.0 0.00 0.00 0.00 50 1016.1
20260831021518 19 25 3.2 8.0 0.00 0.00 0.00 51 1016.0
20260831021019 19 9 4.8 11.3 0.00 0.00 0.00 52 1016.0
20260831020518 19 0 3.2 8.0 0.00 0.00 0.00 52 1016.0
20260831020024 19 349 4.8 8.0 0.00 0.00 0.00 52 1016.1
20260831014519 20 353 4.8 8.0 0.00 0.00 0.00 51 1016.1
20260831013518 20 17 0.0 4.8 0.00 0.00 0.00 50 1016.1